Starlink 1597

operational
NORAD ID: 46142 Int'l Des: 2020-057 Owner: SPXS Country: US Constellation: starlink
LEOCIRCULARSTARLINK_TYPE

Über Starlink 1597

Beschreibung wird geladen...

Live-Position

3D-Globus wird geladen...

Nächste Überflüge

Höhenverlauf

Altitude vs Time

uPlot chart will show altitude changes over time

Zweizeiliger Elementsatz

1 46142U 20057AB 26034.58986502 .00082659 00000-0 15137-2 0 9998
2 46142 53.0519 101.0479 0006654 11.1433 348.9721 15.48616623301042
Epoch: 3. Feb. 2026 • Age: 15 hours

Aktueller Status

Höhe 425.1 km
Geschwindigkeit 7.66 km/s
Subsatellitenpunkt 31.07°N, 46.53°E
Startdatum 18. Aug. 2020
Alter 5.4 years
Typ internet

Technische Details

Klassifizierung Payload
Masse 260.00 kg
Trockenmasse 248.00 kg
Gesamtmasse 260.00 kg
Länge 0.20 m
Durchmesser 2.80 m
Spannweite 9.00 m
Form Box + pan
Hersteller SPXS
Bus-Typ Starlink
Phasenstatus In Orbit
Besitzer/Staat SPXS/US

Große Konstellationen

Loading constellations...